Time,TemperatureF,DewpointF,PressureIn,WindDirection,WindDirectionDegrees,WindSpeedMPH,WindSpeedGustMPH,Humidity,HourlyPrecipIn,Conditions,Clouds,dailyrainin,SoftwareType,DateUTC
2013-07-26 00:02:00,68.0,65.0,29.91,South,190,5.0,9.0,91,0.01,,,0.07,,2013-07-26 05:02:00,
2013-07-26 00:12:00,69.0,66.0,29.91,SW,232,3.0,11.0,91,0.00,,,0.07,,2013-07-26 05:12:00,
2013-07-26 00:22:00,69.0,67.0,29.91,SW,221,3.0,7.0,92,0.00,,,0.07,,2013-07-26 05:22:00,
2013-07-26 00:32:00,69.0,67.0,29.91,SW,221,3.0,7.0,92,0.00,,,0.07,,2013-07-26 05:32:00,
2013-07-26 00:43:00,69.0,67.0,29.91,SW,215,5.0,10.0,92,0.00,,,0.07,,2013-07-26 05:43:00,
2013-07-26 00:52:00,69.0,67.0,29.91,SSW,208,0.0,9.0,92,0.00,,,0.07,,2013-07-26 05:52:00,
2013-07-26 01:02:00,69.0,67.0,29.91,SSW,208,0.0,9.0,92,0.00,,,0.07,,2013-07-26 06:02:00,
2013-07-26 01:12:00,69.0,67.0,29.92,SSW,208,0.0,6.0,92,0.00,,,0.07,,2013-07-26 06:12:00,
2013-07-26 01:22:00,68.0,66.0,29.92,SSW,208,0.0,0.0,93,0.00,,,0.07,,2013-07-26 06:22:00,
2013-07-26 01:33:00,68.0,66.0,29.92,SSW,208,0.0,0.0,93,0.00,,,0.07,,2013-07-26 06:33:00,
2013-07-26 01:43:00,68.0,66.0,29.92,SSW,208,0.0,0.0,94,0.00,,,0.07,,2013-07-26 06:43:00,
2013-07-26 01:52:00,68.0,66.0,29.91,SSW,208,0.0,0.0,94,0.00,,,0.07,,2013-07-26 06:52:00,
2013-07-26 02:02:00,68.0,66.0,29.91,SSW,208,0.0,0.0,94,0.00,,,0.07,,2013-07-26 07:02:00,
2013-07-26 02:12:00,68.0,67.0,29.91,SSW,208,0.0,5.0,95,0.00,,,0.07,,2013-07-26 07:12:00,
2013-07-26 02:22:00,68.0,66.0,29.91,SSW,208,0.0,0.0,94,0.00,,,0.07,,2013-07-26 07:22:00,
2013-07-26 02:32:00,68.0,66.0,29.91,SSW,208,0.0,0.0,94,0.00,,,0.07,,2013-07-26 07:32:00,
2013-07-26 02:43:00,67.0,66.0,29.90,SSW,208,0.0,0.0,95,0.00,,,0.07,,2013-07-26 07:43:00,
2013-07-26 02:52:00,67.0,66.0,29.90,SSW,208,0.0,0.0,95,0.00,,,0.07,,2013-07-26 07:52:00,
2013-07-26 03:02:00,67.0,66.0,29.90,SSW,208,0.0,0.0,95,0.00,,,0.07,,2013-07-26 08:02:00,
2013-07-26 03:12:00,67.0,66.0,29.90,SSW,208,0.0,3.0,95,0.00,,,0.07,,2013-07-26 08:12:00,
2013-07-26 03:32:00,67.0,66.0,29.90,SSW,208,0.0,0.0,96,0.00,,,0.07,,2013-07-26 08:32:00,
2013-07-26 03:44:00,66.0,65.0,29.90,SSW,208,0.0,0.0,96,0.00,,,0.07,,2013-07-26 08:44:00,
2013-07-26 04:02:00,66.0,65.0,29.90,SSW,208,0.0,0.0,96,0.00,,,0.07,,2013-07-26 09:02:00,
2013-07-26 04:12:00,66.0,65.0,29.90,SSW,208,0.0,3.0,96,0.00,,,0.07,,2013-07-26 09:12:00,
2013-07-26 04:32:00,66.0,65.0,29.90,SSW,208,0.0,4.0,96,0.00,,,0.07,,2013-07-26 09:32:00,
2013-07-26 04:43:00,65.0,64.0,29.91,SSW,208,0.0,0.0,96,0.00,,,0.07,,2013-07-26 09:43:00,
2013-07-26 04:52:00,65.0,64.0,29.90,SSW,208,0.0,0.0,96,0.00,,,0.07,,2013-07-26 09:52:00,
2013-07-26 05:02:00,65.0,64.0,29.90,SSW,208,0.0,0.0,96,0.00,,,0.07,,2013-07-26 10:02:00,
2013-07-26 05:12:00,65.0,64.0,29.90,SSW,208,0.0,2.0,96,0.00,,,0.07,,2013-07-26 10:12:00,
2013-07-26 05:33:00,64.0,63.0,29.91,SSW,208,0.0,0.0,96,0.00,,,0.07,,2013-07-26 10:33:00,
2013-07-26 05:42:00,64.0,63.0,29.91,SSW,208,0.0,4.0,96,0.00,,,0.07,,2013-07-26 10:42:00,
2013-07-26 06:02:00,64.0,63.0,29.92,SSW,208,0.0,3.0,96,0.00,,,0.07,,2013-07-26 11:02:00,
2013-07-26 06:12:00,63.0,62.0,29.92,SSW,208,0.0,4.0,96,0.00,,,0.07,,2013-07-26 11:12:00,
2013-07-26 06:22:00,63.0,62.0,29.92,SSW,208,0.0,4.0,96,0.00,,,0.07,,2013-07-26 11:22:00,
2013-07-26 06:32:00,63.0,62.0,29.93,SSW,208,0.0,0.0,96,0.00,,,0.07,,2013-07-26 11:32:00,
2013-07-26 06:43:00,63.0,62.0,29.93,SSW,208,0.0,0.0,96,0.00,,,0.07,,2013-07-26 11:43:00,
2013-07-26 06:52:00,63.0,62.0,29.93,SSW,208,0.0,0.0,96,0.00,,,0.07,,2013-07-26 11:52:00,
2013-07-26 07:02:00,64.0,63.0,29.94,SSW,208,0.0,0.0,96,0.00,,,0.07,,2013-07-26 12:02:00,
2013-07-26 07:12:00,64.0,62.0,29.94,NW,309,0.0,4.0,94,0.00,,,0.07,,2013-07-26 12:12:00,
2013-07-26 07:33:00,64.0,62.0,29.95,West,275,0.0,4.0,94,0.00,,,0.07,,2013-07-26 12:33:00,
2013-07-26 07:43:00,64.0,62.0,29.96,WNW,300,4.0,9.0,94,0.00,,,0.07,,2013-07-26 12:43:00,
2013-07-26 07:53:00,64.0,62.0,29.96,WNW,300,4.0,9.0,94,0.00,,,0.07,,2013-07-26 12:53:00,
2013-07-26 08:02:00,65.0,63.0,29.97,West,273,4.0,15.0,93,0.00,,,0.07,,2013-07-26 13:02:00,
2013-07-26 08:12:00,65.0,63.0,29.97,WNW,287,6.0,14.0,92,0.00,,,0.07,,2013-07-26 13:12:00,
2013-07-26 08:32:00,65.0,62.0,29.98,NW,318,5.0,12.0,90,0.00,,,0.07,,2013-07-26 13:32:00,
2013-07-26 08:43:00,66.0,63.0,29.99,North,355,6.0,16.0,89,0.00,,,0.07,,2013-07-26 13:43:00,
2013-07-26 08:53:00,66.0,63.0,29.99,North,355,6.0,16.0,89,0.00,,,0.07,,2013-07-26 13:53:00,
2013-07-26 09:02:00,66.0,62.0,29.99,WNW,302,4.0,16.0,86,0.00,,,0.07,,2013-07-26 14:02:00,
2013-07-26 09:12:00,67.0,62.0,30.01,WNW,297,4.0,11.0,85,0.00,,,0.07,,2013-07-26 14:12:00,
2013-07-26 09:32:00,67.0,61.0,30.01,North,355,1.0,11.0,82,0.00,,,0.07,,2013-07-26 14:32:00,
2013-07-26 09:43:00,68.0,61.0,30.01,NW,313,3.0,9.0,79,0.00,,,0.07,,2013-07-26 14:43:00,
2013-07-26 09:53:00,68.0,61.0,30.01,NW,313,3.0,9.0,79,0.00,,,0.07,,2013-07-26 14:53:00,
2013-07-26 10:02:00,68.0,61.0,30.01,North,355,4.0,9.0,77,0.00,,,0.07,,2013-07-26 15:02:00,
2013-07-26 10:12:00,68.0,60.0,30.02,NNW,328,5.0,12.0,76,0.00,,,0.07,,2013-07-26 15:12:00,
2013-07-26 10:22:00,68.0,60.0,30.02,NNW,328,5.0,12.0,76,0.00,,,0.07,,2013-07-26 15:22:00,
2013-07-26 10:32:00,68.0,58.0,30.03,NW,321,6.0,14.0,70,0.00,,,0.07,,2013-07-26 15:32:00,
2013-07-26 10:43:00,68.0,59.0,30.03,NW,313,5.0,14.0,73,0.00,,,0.07,,2013-07-26 15:43:00,
2013-07-26 10:53:00,68.0,59.0,30.03,NW,313,5.0,14.0,73,0.00,,,0.07,,2013-07-26 15:53:00,
2013-07-26 11:02:00,68.0,59.0,30.03,NW,323,7.0,14.0,74,0.00,,,0.07,,2013-07-26 16:02:00,
2013-07-26 11:14:00,69.0,59.0,30.03,NW,321,6.0,18.0,70,0.00,,,0.07,,2013-07-26 16:14:00,
2013-07-26 11:22:00,69.0,59.0,30.03,NW,321,6.0,18.0,70,0.00,,,0.07,,2013-07-26 16:22:00,
2013-07-26 11:32:00,69.0,58.0,30.03,WNW,292,7.0,16.0,67,0.00,,,0.07,,2013-07-26 16:32:00,
2013-07-26 11:43:00,70.0,57.0,30.03,NNW,333,7.0,18.0,64,0.00,,,0.07,,2013-07-26 16:43:00,
2013-07-26 11:54:00,70.0,57.0,30.03,NNW,333,7.0,18.0,64,0.00,,,0.07,,2013-07-26 16:54:00,
2013-07-26 12:12:00,69.0,55.0,30.04,NNW,339,5.0,21.0,62,0.00,,,0.07,,2013-07-26 17:12:00,
2013-07-26 12:22:00,69.0,55.0,30.04,NNW,339,5.0,21.0,62,0.00,,,0.07,,2013-07-26 17:22:00,
2013-07-26 12:33:00,70.0,56.0,30.04,NW,314,7.0,19.0,62,0.00,,,0.07,,2013-07-26 17:33:00,
2013-07-26 12:43:00,71.0,54.0,30.05,WNW,290,8.0,17.0,56,0.00,,,0.07,,2013-07-26 17:43:00,
2013-07-26 12:53:00,71.0,54.0,30.05,WNW,290,8.0,17.0,56,0.00,,,0.07,,2013-07-26 17:53:00,
2013-07-26 13:02:00,71.0,54.0,30.04,NNE,13,8.0,17.0,54,0.00,,,0.07,,2013-07-26 18:02:00,
2013-07-26 13:12:00,71.0,54.0,30.04,WNW,296,10.0,17.0,54,0.00,,,0.07,,2013-07-26 18:12:00,
2013-07-26 13:22:00,71.0,54.0,30.04,WNW,296,10.0,17.0,54,0.00,,,0.07,,2013-07-26 18:22:00,
2013-07-26 13:33:00,72.0,56.0,30.04,NW,319,8.0,19.0,57,0.00,,,0.07,,2013-07-26 18:33:00,
2013-07-26 13:43:00,72.0,55.0,30.03,NW,308,9.0,21.0,55,0.00,,,0.07,,2013-07-26 18:43:00,
2013-07-26 13:52:00,72.0,55.0,30.03,NW,308,9.0,21.0,55,0.00,,,0.07,,2013-07-26 18:52:00,
2013-07-26 14:02:00,72.0,55.0,30.03,NW,306,10.0,21.0,56,0.00,,,0.07,,2013-07-26 19:02:00,
2013-07-26 14:12:00,72.0,55.0,30.03,NW,313,8.0,21.0,55,0.00,,,0.07,,2013-07-26 19:12:00,
2013-07-26 14:22:00,72.0,55.0,30.03,NW,313,8.0,21.0,55,0.00,,,0.07,,2013-07-26 19:22:00,
2013-07-26 14:32:00,72.0,55.0,30.03,NW,317,7.0,17.0,56,0.00,,,0.07,,2013-07-26 19:32:00,
2013-07-26 14:43:00,73.0,56.0,30.03,North,355,5.0,16.0,55,0.00,,,0.07,,2013-07-26 19:43:00,
2013-07-26 14:52:00,73.0,56.0,30.03,North,355,5.0,16.0,55,0.00,,,0.07,,2013-07-26 19:52:00,
2013-07-26 15:02:00,73.0,56.0,30.03,NNW,335,7.0,15.0,56,0.00,,,0.07,,2013-07-26 20:02:00,
2013-07-26 15:12:00,73.0,56.0,30.03,WNW,286,4.0,19.0,55,0.00,,,0.07,,2013-07-26 20:12:00,
2013-07-26 15:22:00,73.0,56.0,30.03,WNW,286,4.0,19.0,55,0.00,,,0.07,,2013-07-26 20:22:00,
2013-07-26 15:32:00,73.0,55.0,30.02,NW,317,10.0,18.0,53,0.00,,,0.07,,2013-07-26 20:32:00,
2013-07-26 15:43:00,72.0,56.0,30.02,NNW,331,7.0,21.0,57,0.00,,,0.07,,2013-07-26 20:43:00,
2013-07-26 15:53:00,72.0,56.0,30.02,NNW,331,7.0,21.0,57,0.00,,,0.07,,2013-07-26 20:53:00,
2013-07-26 16:02:00,72.0,57.0,30.02,WNW,298,6.0,16.0,59,0.00,,,0.07,,2013-07-26 21:02:00,
2013-07-26 16:12:00,71.0,56.0,30.02,NW,317,7.0,18.0,60,0.00,,,0.07,,2013-07-26 21:12:00,
2013-07-26 16:22:00,71.0,56.0,30.02,NW,317,7.0,18.0,60,0.00,,,0.07,,2013-07-26 21:22:00,
2013-07-26 16:32:00,70.0,56.0,30.03,NW,306,7.0,14.0,61,0.00,,,0.07,,2013-07-26 21:32:00,
2013-07-26 16:43:00,70.0,55.0,30.03,WNW,303,6.0,19.0,60,0.00,,,0.07,,2013-07-26 21:43:00,
2013-07-26 16:53:00,70.0,55.0,30.03,WNW,303,6.0,19.0,60,0.00,,,0.07,,2013-07-26 21:53:00,
2013-07-26 17:01:00,71.0,55.0,30.03,NNW,338,6.0,17.0,58,0.00,,,0.07,,2013-07-26 22:01:00,
2013-07-26 17:11:00,71.0,55.0,30.03,North,10,8.0,16.0,58,0.00,,,0.07,,2013-07-26 22:11:00,
2013-07-26 17:22:00,71.0,55.0,30.03,North,10,8.0,16.0,58,0.00,,,0.07,,2013-07-26 22:22:00,
2013-07-26 17:33:00,70.0,55.0,30.03,NNW,332,9.0,17.0,58,0.00,,,0.07,,2013-07-26 22:33:00,
2013-07-26 17:43:00,70.0,55.0,30.03,NNE,12,8.0,21.0,60,0.00,,,0.07,,2013-07-26 22:43:00,
2013-07-26 17:53:00,70.0,55.0,30.03,NNE,12,8.0,21.0,60,0.00,,,0.07,,2013-07-26 22:53:00,
2013-07-26 18:02:00,70.0,55.0,30.03,North,349,7.0,19.0,60,0.00,,,0.07,,2013-07-26 23:02:00,
2013-07-26 18:12:00,70.0,55.0,30.03,NNW,337,8.0,13.0,58,0.00,,,0.07,,2013-07-26 23:12:00,
2013-07-26 18:22:00,70.0,55.0,30.03,NNW,337,8.0,13.0,58,0.00,,,0.07,,2013-07-26 23:22:00,
2013-07-26 18:32:00,69.0,54.0,30.03,NW,315,7.0,16.0,59,0.00,,,0.07,,2013-07-26 23:32:00,
2013-07-26 18:43:00,69.0,54.0,30.03,NW,319,7.0,15.0,59,0.00,,,0.07,,2013-07-26 23:43:00,
2013-07-26 18:52:00,69.0,54.0,30.03,NW,319,7.0,15.0,59,0.00,,,0.07,,2013-07-26 23:52:00,
2013-07-26 19:02:00,69.0,54.0,30.03,WNW,295,2.0,16.0,59,0.00,,,0.07,,2013-07-27 00:02:00,
2013-07-26 19:12:00,70.0,55.0,30.03,WNW,290,5.0,11.0,58,0.00,,,0.07,,2013-07-27 00:12:00,
2013-07-26 19:22:00,70.0,55.0,30.03,WNW,290,5.0,11.0,58,0.00,,,0.07,,2013-07-27 00:22:00,
2013-07-26 19:32:00,69.0,54.0,30.02,NW,311,7.0,12.0,58,0.00,,,0.07,,2013-07-27 00:32:00,
2013-07-26 19:42:00,69.0,54.0,30.02,NW,311,7.0,12.0,58,0.00,,,0.07,,2013-07-27 00:42:00,
2013-07-26 19:53:00,69.0,53.0,30.02,NW,324,5.0,9.0,57,0.00,,,0.07,,2013-07-27 00:53:00,
2013-07-26 20:02:00,69.0,54.0,30.03,NW,313,2.0,11.0,58,0.00,,,0.07,,2013-07-27 01:02:00,
2013-07-26 20:12:00,69.0,54.0,30.03,NW,306,1.0,9.0,59,0.00,,,0.07,,2013-07-27 01:12:00,
2013-07-26 20:22:00,69.0,54.0,30.03,NW,306,1.0,9.0,59,0.00,,,0.07,,2013-07-27 01:22:00,
2013-07-26 20:32:00,68.0,54.0,30.03,NW,319,0.0,6.0,61,0.00,,,0.06,,2013-07-27 01:32:00,
2013-07-26 20:43:00,68.0,54.0,30.03,NW,319,0.0,6.0,61,0.00,,,0.06,,2013-07-27 01:43:00,
2013-07-26 20:53:00,67.0,54.0,30.03,WNW,302,2.0,7.0,63,0.00,,,0.06,,2013-07-27 01:53:00,
2013-07-26 21:02:00,67.0,54.0,30.03,WNW,302,2.0,7.0,63,0.00,,,0.06,,2013-07-27 02:02:00,
2013-07-26 21:12:00,66.0,54.0,30.03,NNW,331,2.0,4.0,66,0.00,,,0.06,,2013-07-27 02:12:00,
2013-07-26 21:22:00,66.0,54.0,30.03,NNW,331,2.0,4.0,66,0.00,,,0.06,,2013-07-27 02:22:00,
2013-07-26 21:32:00,65.0,54.0,30.03,NNW,331,1.0,3.0,68,0.00,,,0.01,,2013-07-27 02:32:00,
2013-07-26 21:43:00,65.0,54.0,30.03,NNW,331,1.0,5.0,68,0.00,,,0.01,,2013-07-27 02:43:00,
2013-07-26 21:52:00,65.0,54.0,30.03,NNW,331,1.0,5.0,68,0.00,,,0.01,,2013-07-27 02:52:00,
2013-07-26 22:03:00,64.0,54.0,30.04,NNW,329,1.0,4.0,71,0.00,,,0.01,,2013-07-27 03:03:00,
2013-07-26 22:12:00,63.0,54.0,30.04,NNW,329,0.0,0.0,73,0.00,,,0.01,,2013-07-27 03:12:00,
2013-07-26 22:22:00,63.0,54.0,30.04,NNW,329,0.0,0.0,73,0.00,,,0.01,,2013-07-27 03:22:00,
2013-07-26 22:33:00,62.0,54.0,30.05,NNW,329,0.0,0.0,74,0.00,,,0.01,,2013-07-27 03:33:00,
2013-07-26 22:44:00,62.0,54.0,30.05,NNW,329,0.0,0.0,75,0.00,,,0.01,,2013-07-27 03:44:00,
2013-07-26 22:52:00,62.0,54.0,30.05,NNW,329,0.0,0.0,75,0.00,,,0.01,,2013-07-27 03:52:00,
2013-07-26 23:02:00,62.0,54.0,30.05,NNW,329,0.0,0.0,75,0.00,,,0.01,,2013-07-27 04:02:00,
2013-07-26 23:12:00,62.0,54.0,30.05,NNW,329,1.0,3.0,75,0.00,,,0.01,,2013-07-27 04:12:00,
2013-07-26 23:22:00,62.0,54.0,30.05,NNW,329,1.0,3.0,75,0.00,,,0.01,,2013-07-27 04:22:00,
2013-07-26 23:32:00,61.0,53.0,30.04,NNW,329,1.0,3.0,76,0.00,,,0.00,,2013-07-27 04:32:00,
2013-07-26 23:43:00,61.0,54.0,30.04,NNW,329,1.0,3.0,77,0.00,,,0.00,,2013-07-27 04:43:00,
2013-07-26 23:53:00,61.0,54.0,30.04,NNW,329,1.0,3.0,77,0.00,,,0.00,,2013-07-27 04:53:00,